Temp
19 18 18 18 18 18 18 18 17 17 16 16 16 16 16 16 15 15 14 14 14 14 14 13 13 13 12 12 11 11 10 9
19 19 18 18 18 18 18 17 17 17 16 15 15 15 15 15 14 14 14 14 14 14 13 13 13 13 12 11 10 10 9 9
19 19 18 17 17 18 18 18 17 17 17 16 16 15 14 14 14 14 14 14 14 13 13 13 12 12 11 10 10 9 9 9
18 18 17 17 16 17 18 17 17 17 16 16 16 15 14 14 14 13 13 14 14 13 13 13 12 11 10 9 9 9 9 8
18 18 16 16 16 17 17 16 17 16 16 16 16 15 13 14 14 14 13 13 13 13 12 11 11 10 9 9 8 8 8 7
17 17 16 16 16 16 17 17 17 16 16 16 16 15 15 14 14 13 13 13 13 12 12 11 10 9 9 8 8 8 7 7
16 16 15 15 15 15 17 17 17 16 16 16 16 16 15 14 13 13 13 12 12 11 10 10 10 9 8 8 7 7 7 7
15 15 15 15 15 14 16 16 16 16 16 16 15 16 15 15 13 13 12 11 10 10 10 9 9 8 8 7 7 6 6 6
16 15 15 15 14 15 16 15 15 16 16 16 16 16 15 14 13 13 12 11 11 10 9 9 8 8 7 7 6 6 6 5
15 15 15 15 15 15 15 16 16 16 16 16 15 14 14 13 12 12 11 10 10 9 9 8 8 7 7 7 6 6 5 5
15 15 15 16 17 17 17 16 16 15 15 15 14 13 13 13 12 11 11 10 10 9 9 8 8 7 7 7 6 5 5 5
15 15 16 17 17 17 17 17 16 15 15 14 14 13 13 12 12 11 10 10 9 8 7 8 8 7 7 6 6 5 5 4
16 16 16 16 16 17 17 17 16 16 15 14 13 13 12 11 11 10 10 9 9 9 8 8 7 7 6 6 5 5 4 4
16 15 16 15 16 16 16 17 16 15 14 13 13 13 12 11 11 10 9 9 9 8 8 7 7 7 6 6 5 4 4 3
17 16 16 16 16 16 15 14 15 14 13 13 13 12 11 11 9 9 9 9 8 8 8 7 7 6 6 5 5 4 3 2
17 16 15 16 16 15 15 14 14 13 11 10 10 11 10 9 9 8 7 7 7 7 7 7 6 6 6 5 5 3 3 2
17 17 15 15 15 15 15 13 11 11 10 10 10 9 9 8 7 6 6 6 6 6 6 5 6 6 5 5 4 3 2 2
15 15 15 15 16 15 14 12 10 10 10 10 9 9 8 7 6 6 4 4 5 5 6 5 5 5 5 5 4 3 2 1
14 14 15 15 14 12 10 9 9 10 9 9 8 8 6 5 4 3 3 4 4 5 4 4 4 4 4 4 3 2 1 1
Height
806 810 813 814 819 822 825 829 831 835 838 841 844 845 847 847 848 852 852 855 855 857 858 860 861 861 864 863 865 866 866 867
802 807 810 814 819 820 823 825 829 831 835 838 840 843 845 846 851 853 854 853 852 855 859 862 862 862 863 864 865 865 866 867
800 804 810 812 815 819 820 823 827 829 832 834 837 841 843 847 850 851 852 852 853 857 860 860 860 860 862 863 864 865 866 866
795 799 803 808 812 814 817 820 823 827 831 834 836 838 843 846 848 849 851 852 854 857 859 858 858 859 861 862 864 865 865 865
787 793 799 800 804 810 815 818 823 827 829 831 832 835 839 843 846 847 850 853 855 855 855 855 857 859 860 861 861 860 860 863
782 785 789 795 799 804 810 816 821 824 827 829 831 833 837 841 844 846 850 850 851 851 851 853 855 857 857 857 857 858 857 856
783 787 792 798 801 804 810 814 817 821 823 826 827 830 833 838 841 844 846 848 850 853 855 856 854 856 857 856 854 855 853 855
784 787 791 796 798 802 808 812 814 818 820 822 824 827 830 833 838 842 844 847 851 850 850 853 861 854 854 855 854 853 852 852
777 783 788 792 795 800 804 808 812 815 817 820 823 826 830 833 837 840 843 845 846 852 858 853 852 850 852 853 853 851 851 850
778 783 786 789 794 798 803 806 810 812 815 817 822 826 831 835 839 843 845 847 849 849 850 852 851 853 849 850 850 850 848 848
777 780 782 786 790 795 799 803 806 811 815 818 822 826 831 834 837 840 842 845 846 850 847 849 848 847 847 846 847 847 846 846
772 775 778 781 785 789 793 798 803 807 810 814 818 822 827 831 834 835 840 841 842 844 842 843 844 842 842 842 843 842 842 842
763 766 770 775 778 783 786 790 793 797 802 807 812 817 822 826 830 832 834 836 836 837 838 839 840 840 840 839 838 839 841 840
762 766 767 769 772 776 778 781 785 792 798 804 809 813 816 821 822 824 825 830 832 834 835 837 837 836 836 835 835 835 834 835
758 763 765 767 769 771 777 780 784 788 793 797 799 803 809 814 816 818 821 826 828 830 830 832 833 833 832 831 831 832 832 832
761 764 765 766 769 773 777 780 784 789 794 800 804 810 812 811 814 825 822 826 826 828 829 828 829 829 828 827 827 828 828 827
761 757 760 762 766 770 773 777 783 788 793 799 806 812 817 819 820 822 825 825 824 824 825 825 825 824 822 823 823 822 823 824
762 761 760 760 762 766 770 774 782 788 793 799 804 806 808 812 817 819 822 824 825 823 823 821 819 819 818 818 818 818 819 820
764 764 762 763 765 769 773 779 786 793 799 803 806 808 810 815 817 819 821 820 819 818 818 818 816 814 814 814 814 814 815 816
Wind_Speed
29 33 32 36 37 38 32 32 34 32 29 25 22 17 11 9 11 15 16 16 15 12 11 9 5 4 3 5 6 6 7 4
31 32 34 34 36 39 36 35 34 33 30 25 19 15 12 14 16 16 17 16 14 10 10 9 4 1 3 2 3 6 3 5
23 30 32 34 38 39 39 38 36 33 31 26 18 14 14 18 18 16 14 13 14 12 9 5 1 2 2 4 6 5 1 5
17 27 32 32 30 39 41 41 38 34 29 20 12 14 17 17 19 19 18 15 12 10 7 4 2 2 2 2 3 5 7 5
16 25 27 34 36 40 37 38 35 32 27 20 22 26 24 26 25 21 19 14 12 10 9 9 9 6 3 2 3 5 7 10
17 25 34 34 37 41 39 35 32 31 32 25 26 26 28 28 26 25 21 18 14 12 14 14 10 5 1 2 5 8 8 5
9 19 25 27 32 34 37 34 34 30 33 30 28 32 31 30 29 27 22 19 17 15 12 7 5 1 5 7 7 7 7 8
13 14 21 25 28 29 34 34 32 30 29 30 30 37 35 34 33 27 22 22 17 14 9 2 3 5 8 9 10 8 8 7
14 17 21 26 28 33 31 31 30 28 27 28 32 33 31 31 29 24 24 20 16 8 2 3 2 5 7 9 9 10 6 5
12 15 21 24 26 31 34 26 25 24 24 26 27 28 27 23 18 17 15 13 9 8 5 3 9 8 7 8 10 9 7 9
9 14 20 27 29 30 26 23 28 28 26 27 28 25 20 17 17 14 11 9 5 5 7 15 12 6 7 9 11 8 10 11
14 16 24 30 31 29 28 29 33 31 29 29 28 25 21 20 17 10 8 8 4 10 15 16 10 8 7 10 9 10 10 8
16 21 26 27 32 34 35 37 39 38 35 33 30 26 21 19 11 9 10 6 12 17 16 13 11 8 9 12 12 11 10 10
10 11 19 26 30 33 38 41 42 39 37 34 30 25 23 18 16 16 12 12 16 12 11 11 10 11 12 13 12 12 11 10
11 10 15 23 28 30 25 29 36 38 38 37 36 32 26 22 18 12 9 8 4 6 10 11 13 12 12 12 14 15 13 11
4 5 6 16 19 20 20 28 33 37 34 27 24 22 19 18 11 7 7 3 2 6 8 11 15 17 17 16 18 17 14 11
6 5 9 15 20 24 26 28 27 29 26 22 18 16 8 11 10 2 3 4 5 6 10 14 16 19 16 18 19 18 15 12
7 6 5 14 23 29 29 29 27 27 26 22 21 20 17 10 10 4 6 2 7 11 16 17 19 21 20 19 18 17 15 13
6 8 8 1 12 14 20 24 25 25 20 18 16 17 17 12 10 9 1 7 13 18 16 18 21 21 17 17 18 16 15 14
Wind_Direction
179 180 184 183 185 180 178 175 172 171 169 163 162 165 175 181 173 166 158 160 147 140 132 134 143 119 61 11 2 5 353 2
180 179 178 180 184 183 180 176 178 177 175 170 168 177 177 170 170 162 161 160 153 150 153 153 146 66 339 18 19 355 347 354
173 173 175 178 180 184 185 187 186 185 186 181 176 179 174 171 166 160 162 160 154 164 173 178 163 13 96 8 350 349 295 334
168 173 175 175 178 184 188 193 192 192 189 174 173 176 164 174 172 170 171 172 175 192 208 215 214 142 128 61 359 326 304 295
165 171 171 177 181 187 190 193 194 195 187 186 181 176 170 180 178 172 172 188 191 188 178 176 172 168 150 82 18 353 337 302
168 175 179 181 179 186 193 192 198 203 203 202 191 188 189 190 186 182 184 189 192 194 191 175 174 180 173 337 339 337 348 297
153 164 166 179 184 183 191 196 204 208 207 206 205 201 196 190 186 183 187 189 189 180 177 181 179 48 350 352 355 348 353 308
151 159 169 174 185 183 193 200 205 209 204 210 214 208 201 198 188 187 185 178 171 171 177 187 315 12 356 344 337 336 331 304
162 167 172 177 183 190 196 203 206 207 210 218 212 204 197 185 179 179 178 176 175 170 255 224 252 345 349 341 333 336 334 334
165 174 179 176 182 190 192 194 201 194 190 190 181 175 172 172 171 177 172 163 170 181 189 269 326 322 344 332 317 305 312 324
162 174 176 187 191 189 188 191 184 177 172 170 166 168 172 176 173 168 170 174 191 212 297 298 278 277 304 309 299 280 301 311
178 181 185 189 190 188 184 186 182 181 183 180 178 175 175 177 181 184 195 175 211 287 272 249 248 267 278 293 258 264 273 289
183 183 181 184 188 185 181 186 191 193 191 186 180 178 186 185 182 182 179 266 285 264 237 232 242 257 279 283 260 254 266 284
183 176 186 189 191 192 192 193 194 193 187 183 178 182 184 185 187 192 204 260 263 227 237 237 245 264 280 273 250 252 252 263
198 193 197 199 199 200 195 191 196 194 190 185 187 186 184 189 184 188 219 198 205 229 243 248 269 282 284 265 255 251 242 239
221 233 214 206 201 201 190 195 193 194 185 179 179 184 182 166 179 156 122 173 93 294 275 281 294 287 285 263 257 246 242 241
26 231 185 191 192 194 192 193 186 182 172 166 169 165 138 121 116 89 129 21 8 317 295 302 293 284 268 264 249 248 245 252
49 42 199 190 194 198 191 185 173 165 161 162 166 156 147 157 161 138 67 26 282 308 302 290 299 293 279 256 249 251 243 249
38 45 58 113 196 166 146 141 142 143 142 147 154 149 131 122 103 98 242 284 284 279 295 307 303 294 273 250 247 243 244 249